Retour au catalogue

COSMOS 2224

ActifNavigationGEO
NORAD 22269·PAYLOAD·🇷🇺 Russia

Lancé Dec 17, 1992 depuis Baikonur Cosmodrome

Loading…

TLE

FraisSource: Space-Track

Époque: Sep 14, 2026, 01:59 UTC

1 22269U 92088A   26257.08302605 -.00000305  00000-0  00000-0 0  9993
2 22269  13.6040 347.3238 0007550 264.3893  84.8566  1.00207654122972

Suivez COSMOS 2224 en temps réel avec AllMySat

Download on the App Store